Time,TemperatureF,DewpointF,PressureIn,WindDirection,WindDirectionDegrees,WindSpeedMPH,WindSpeedGustMPH,Humidity,HourlyPrecipIn,Conditions,Clouds,dailyrainin,SoftwareType,DateUTC
2013-01-10 00:03:00,45.0,-99.9,30.07,West,268,13.0,22.0,-999,-99.99,,,-99.99,,2013-01-10 05:03:00,
2013-01-10 00:12:00,45.0,-99.9,30.07,West,279,12.0,21.0,-999,-99.99,,,-99.99,,2013-01-10 05:12:00,
2013-01-10 00:23:00,45.0,-99.9,30.08,West,274,10.0,22.0,-999,-99.99,,,-99.99,,2013-01-10 05:23:00,
2013-01-10 00:33:00,45.0,-99.9,30.09,West,274,12.0,23.0,-999,-99.99,,,-99.99,,2013-01-10 05:33:00,
2013-01-10 00:43:00,45.0,-99.9,30.09,West,274,11.0,26.0,-999,-99.99,,,-99.99,,2013-01-10 05:43:00,
2013-01-10 00:53:00,45.0,-99.9,30.10,West,274,15.0,24.0,-999,-99.99,,,-99.99,,2013-01-10 05:53:00,
2013-01-10 01:03:00,45.0,-99.9,30.11,West,279,11.0,22.0,-999,-99.99,,,-99.99,,2013-01-10 06:03:00,
2013-01-10 01:12:00,45.0,-99.9,30.11,West,280,8.0,16.0,-999,-99.99,,,-99.99,,2013-01-10 06:12:00,
2013-01-10 01:22:00,45.0,-99.9,30.11,WNW,285,10.0,17.0,-999,-99.99,,,-99.99,,2013-01-10 06:22:00,
2013-01-10 01:32:00,45.0,-99.9,30.11,West,265,9.0,18.0,-999,-99.99,,,-99.99,,2013-01-10 06:32:00,
2013-01-10 01:42:00,45.0,-99.9,30.11,West,276,11.0,21.0,-999,-99.99,,,-99.99,,2013-01-10 06:42:00,
2013-01-10 01:52:00,45.0,-99.9,30.11,West,274,9.0,17.0,-999,-99.99,,,-99.99,,2013-01-10 06:52:00,
2013-01-10 02:02:00,45.0,-99.9,30.12,West,261,10.0,17.0,-999,-99.99,,,-99.99,,2013-01-10 07:02:00,
2013-01-10 02:12:00,45.0,-99.9,30.11,West,272,10.0,17.0,-999,-99.99,,,-99.99,,2013-01-10 07:12:00,
2013-01-10 02:22:00,45.0,-99.9,30.11,West,269,10.0,21.0,-999,-99.99,,,-99.99,,2013-01-10 07:22:00,
2013-01-10 02:32:00,45.0,-99.9,30.11,West,267,8.0,20.0,-999,-99.99,,,-99.99,,2013-01-10 07:32:00,
2013-01-10 02:42:00,45.0,-99.9,30.12,West,272,7.0,19.0,-999,-99.99,,,-99.99,,2013-01-10 07:42:00,
2013-01-10 02:52:00,45.0,-99.9,30.12,West,272,9.0,15.0,-999,-99.99,,,-99.99,,2013-01-10 07:52:00,
2013-01-10 03:02:00,44.0,-99.9,30.12,West,270,9.0,18.0,-999,-99.99,,,-99.99,,2013-01-10 08:02:00,
2013-01-10 03:12:00,44.0,-99.9,30.12,West,263,10.0,16.0,-999,-99.99,,,-99.99,,2013-01-10 08:12:00,
2013-01-10 03:22:00,45.0,-99.9,30.12,West,259,10.0,20.0,-999,-99.99,,,-99.99,,2013-01-10 08:22:00,
2013-01-10 03:33:00,44.0,-99.9,30.13,West,259,11.0,16.0,-999,-99.99,,,-99.99,,2013-01-10 08:33:00,
2013-01-10 03:42:00,44.0,-99.9,30.13,West,264,10.0,19.0,-999,-99.99,,,-99.99,,2013-01-10 08:42:00,
2013-01-10 03:53:00,45.0,-99.9,30.13,West,269,15.0,23.0,-999,-99.99,,,-99.99,,2013-01-10 08:53:00,
2013-01-10 04:02:00,45.0,-99.9,30.14,West,281,14.0,23.0,-999,-99.99,,,-99.99,,2013-01-10 09:02:00,
2013-01-10 04:12:00,45.0,-99.9,30.14,West,273,15.0,27.0,-999,-99.99,,,-99.99,,2013-01-10 09:12:00,
2013-01-10 04:22:00,45.0,-99.9,30.15,WNW,291,14.0,24.0,-999,-99.99,,,-99.99,,2013-01-10 09:22:00,
2013-01-10 04:32:00,44.0,-99.9,30.16,WNW,291,15.0,24.0,-999,-99.99,,,-99.99,,2013-01-10 09:32:00,
2013-01-10 04:43:00,44.0,-99.9,30.16,WNW,294,15.0,28.0,-999,-99.99,,,-99.99,,2013-01-10 09:43:00,
2013-01-10 04:53:00,44.0,-99.9,30.17,WNW,293,15.0,28.0,-999,-99.99,,,-99.99,,2013-01-10 09:53:00,
2013-01-10 05:03:00,44.0,-99.9,30.18,WNW,301,12.0,23.0,-999,-99.99,,,-99.99,,2013-01-10 10:03:00,
2013-01-10 05:12:00,43.0,-99.9,30.19,WNW,296,12.0,23.0,-999,-99.99,,,-99.99,,2013-01-10 10:12:00,
2013-01-10 05:22:00,43.0,-99.9,30.19,WNW,294,10.0,22.0,-999,-99.99,,,-99.99,,2013-01-10 10:22:00,
2013-01-10 05:33:00,42.0,-99.9,30.20,WNW,294,11.0,20.0,-999,-99.99,,,-99.99,,2013-01-10 10:33:00,
2013-01-10 05:43:00,42.0,-99.9,30.21,WNW,296,11.0,22.0,-999,-99.99,,,-99.99,,2013-01-10 10:43:00,
2013-01-10 05:53:00,42.0,-99.9,30.21,WNW,296,13.0,23.0,-999,-99.99,,,-99.99,,2013-01-10 10:53:00,
2013-01-10 06:03:00,42.0,-99.9,30.22,WNW,294,14.0,24.0,-999,-99.99,,,-99.99,,2013-01-10 11:03:00,
2013-01-10 06:12:00,42.0,-99.9,30.22,WNW,294,12.0,19.0,-999,-99.99,,,-99.99,,2013-01-10 11:12:00,
2013-01-10 06:23:00,42.0,-99.9,30.23,WNW,289,9.0,18.0,-999,-99.99,,,-99.99,,2013-01-10 11:23:00,
2013-01-10 06:33:00,42.0,-99.9,30.23,WNW,291,10.0,17.0,-999,-99.99,,,-99.99,,2013-01-10 11:33:00,
2013-01-10 06:43:00,42.0,-99.9,30.24,WNW,289,10.0,14.0,-999,-99.99,,,-99.99,,2013-01-10 11:43:00,
2013-01-10 06:53:00,42.0,-99.9,30.25,WNW,285,7.0,15.0,-999,-99.99,,,-99.99,,2013-01-10 11:53:00,
2013-01-10 07:03:00,41.0,-99.9,30.24,West,277,8.0,14.0,-999,-99.99,,,-99.99,,2013-01-10 12:03:00,
2013-01-10 07:12:00,41.0,-99.9,30.25,West,275,5.0,14.0,-999,-99.99,,,-99.99,,2013-01-10 12:12:00,
2013-01-10 07:22:00,41.0,-99.9,30.27,WNW,284,7.0,12.0,-999,-99.99,,,-99.99,,2013-01-10 12:22:00,
2013-01-10 07:33:00,41.0,-99.9,30.27,West,276,8.0,14.0,-999,-99.99,,,-99.99,,2013-01-10 12:33:00,
2013-01-10 07:43:00,41.0,-99.9,30.27,West,277,7.0,14.0,-999,-99.99,,,-99.99,,2013-01-10 12:43:00,
2013-01-10 07:53:00,41.0,-99.9,30.28,West,270,6.0,15.0,-999,-99.99,,,-99.99,,2013-01-10 12:53:00,
2013-01-10 08:02:00,41.0,-99.9,30.28,West,269,7.0,15.0,-999,-99.99,,,-99.99,,2013-01-10 13:02:00,
2013-01-10 08:12:00,41.0,-99.9,30.28,West,276,11.0,19.0,-999,-99.99,,,-99.99,,2013-01-10 13:12:00,
2013-01-10 08:22:00,42.0,-99.9,30.29,West,277,10.0,20.0,-999,-99.99,,,-99.99,,2013-01-10 13:22:00,
2013-01-10 08:33:00,42.0,-99.9,30.30,WNW,284,9.0,21.0,-999,-99.99,,,-99.99,,2013-01-10 13:33:00,
2013-01-10 08:42:00,42.0,-99.9,30.31,West,279,10.0,16.0,-999,-99.99,,,-99.99,,2013-01-10 13:42:00,
2013-01-10 08:53:00,43.0,-99.9,30.32,West,281,11.0,19.0,-999,-99.99,,,-99.99,,2013-01-10 13:53:00,
2013-01-10 09:03:00,43.0,-99.9,30.33,WNW,282,11.0,20.0,-999,-99.99,,,-99.99,,2013-01-10 14:03:00,
2013-01-10 09:12:00,43.0,-99.9,30.33,West,281,9.0,20.0,-999,-99.99,,,-99.99,,2013-01-10 14:12:00,
2013-01-10 09:23:00,43.0,-99.9,30.33,WNW,286,10.0,17.0,-999,-99.99,,,-99.99,,2013-01-10 14:23:00,
2013-01-10 09:33:00,43.0,-99.9,30.34,WNW,290,12.0,20.0,-999,-99.99,,,-99.99,,2013-01-10 14:33:00,
2013-01-10 09:44:00,43.0,-99.9,30.34,WNW,282,12.0,19.0,-999,-99.99,,,-99.99,,2013-01-10 14:44:00,
2013-01-10 09:53:00,43.0,-99.9,30.35,WNW,288,11.0,19.0,-999,-99.99,,,-99.99,,2013-01-10 14:53:00,
2013-01-10 10:03:00,43.0,-99.9,30.35,WNW,293,11.0,17.0,-999,-99.99,,,-99.99,,2013-01-10 15:03:00,
2013-01-10 10:12:00,43.0,-99.9,30.35,WNW,293,11.0,17.0,-999,-99.99,,,-99.99,,2013-01-10 15:12:00,
2013-01-10 10:23:00,43.0,-99.9,30.35,WNW,285,13.0,19.0,-999,-99.99,,,-99.99,,2013-01-10 15:23:00,
2013-01-10 10:33:00,44.0,-99.9,30.35,WNW,294,10.0,19.0,-999,-99.99,,,-99.99,,2013-01-10 15:33:00,
2013-01-10 10:43:00,44.0,-99.9,30.35,WNW,283,12.0,18.0,-999,-99.99,,,-99.99,,2013-01-10 15:43:00,
2013-01-10 10:53:00,43.0,-99.9,30.35,WNW,295,13.0,18.0,-999,-99.99,,,-99.99,,2013-01-10 15:53:00,
2013-01-10 11:03:00,43.0,-99.9,30.34,WNW,300,14.0,21.0,-999,-99.99,,,-99.99,,2013-01-10 16:03:00,
2013-01-10 11:13:00,44.0,-99.9,30.34,WNW,296,13.0,20.0,-999,-99.99,,,-99.99,,2013-01-10 16:13:00,
2013-01-10 11:23:00,43.0,-99.9,30.33,WNW,290,14.0,21.0,-999,-99.99,,,-99.99,,2013-01-10 16:23:00,
2013-01-10 11:33:00,43.0,-99.9,30.34,WNW,295,13.0,18.0,-999,-99.99,,,-99.99,,2013-01-10 16:33:00,
2013-01-10 11:43:00,44.0,-99.9,30.33,WNW,296,12.0,17.0,-999,-99.99,,,-99.99,,2013-01-10 16:43:00,
2013-01-10 11:53:00,43.0,-99.9,30.33,WNW,298,13.0,20.0,-999,-99.99,,,-99.99,,2013-01-10 16:53:00,
2013-01-10 12:03:00,43.0,-99.9,30.33,WNW,289,13.0,23.0,-999,-99.99,,,-99.99,,2013-01-10 17:03:00,
2013-01-10 12:13:00,44.0,-99.9,30.33,WNW,296,14.0,20.0,-999,-99.99,,,-99.99,,2013-01-10 17:13:00,
2013-01-10 12:23:00,44.0,-99.9,30.33,WNW,296,14.0,20.0,-999,-99.99,,,-99.99,,2013-01-10 17:23:00,
2013-01-10 12:33:00,44.0,-99.9,30.32,WNW,298,10.0,18.0,-999,-99.99,,,-99.99,,2013-01-10 17:33:00,
2013-01-10 12:43:00,44.0,-99.9,30.32,WNW,295,9.0,17.0,-999,-99.99,,,-99.99,,2013-01-10 17:43:00,
2013-01-10 12:53:00,44.0,-99.9,30.32,WNW,298,14.0,18.0,-999,-99.99,,,-99.99,,2013-01-10 17:53:00,
2013-01-10 13:04:00,44.0,-99.9,30.32,WNW,296,11.0,19.0,-999,-99.99,,,-99.99,,2013-01-10 18:04:00,
2013-01-10 13:12:00,44.0,-99.9,30.32,WNW,294,9.0,19.0,-999,-99.99,,,-99.99,,2013-01-10 18:12:00,
2013-01-10 13:23:00,44.0,-99.9,30.32,WNW,292,11.0,18.0,-999,-99.99,,,-99.99,,2013-01-10 18:23:00,
2013-01-10 13:33:00,44.0,-99.9,30.32,WNW,288,10.0,18.0,-999,-99.99,,,-99.99,,2013-01-10 18:33:00,
2013-01-10 13:44:00,44.0,-99.9,30.33,WNW,291,12.0,20.0,-999,-99.99,,,-99.99,,2013-01-10 18:44:00,
2013-01-10 13:53:00,44.0,-99.9,30.34,WNW,287,14.0,18.0,-999,-99.99,,,-99.99,,2013-01-10 18:53:00,
2013-01-10 14:03:00,45.0,-99.9,30.34,WNW,294,11.0,18.0,-999,-99.99,,,-99.99,,2013-01-10 19:03:00,
2013-01-10 14:13:00,45.0,-99.9,30.35,WNW,298,12.0,17.0,-999,-99.99,,,-99.99,,2013-01-10 19:13:00,
2013-01-10 14:23:00,45.0,-99.9,30.35,WNW,303,9.0,16.0,-999,-99.99,,,-99.99,,2013-01-10 19:23:00,
2013-01-10 14:33:00,45.0,-99.9,30.35,WNW,299,9.0,18.0,-999,-99.99,,,-99.99,,2013-01-10 19:33:00,
2013-01-10 14:44:00,45.0,-99.9,30.35,NW,306,8.0,13.0,-999,-99.99,,,-99.99,,2013-01-10 19:44:00,
2013-01-10 14:53:00,44.0,-99.9,30.35,WNW,298,10.0,16.0,-999,-99.99,,,-99.99,,2013-01-10 19:53:00,
2013-01-10 15:13:00,44.0,-99.9,30.36,NW,305,8.0,17.0,-999,-99.99,,,-99.99,,2013-01-10 20:13:00,
2013-01-10 15:24:00,44.0,-99.9,30.36,WNW,297,11.0,15.0,-999,-99.99,,,-99.99,,2013-01-10 20:24:00,
2013-01-10 15:33:00,44.0,-99.9,30.36,NW,306,9.0,15.0,-999,-99.99,,,-99.99,,2013-01-10 20:33:00,
2013-01-10 15:43:00,44.0,-99.9,30.36,NW,304,10.0,15.0,-999,-99.99,,,-99.99,,2013-01-10 20:43:00,
2013-01-10 15:53:00,44.0,-99.9,30.37,WNW,302,9.0,16.0,-999,-99.99,,,-99.99,,2013-01-10 20:53:00,
2013-01-10 16:04:00,44.0,-99.9,30.37,NW,306,7.0,14.0,-999,-99.99,,,-99.99,,2013-01-10 21:04:00,
2013-01-10 16:13:00,44.0,-99.9,30.37,NW,312,8.0,11.0,-999,-99.99,,,-99.99,,2013-01-10 21:13:00,
2013-01-10 16:23:00,43.0,-99.9,30.36,NW,305,13.0,16.0,-999,-99.99,,,-99.99,,2013-01-10 21:23:00,
2013-01-10 16:33:00,43.0,-99.9,30.37,NW,309,9.0,15.0,-999,-99.99,,,-99.99,,2013-01-10 21:33:00,
2013-01-10 16:44:00,43.0,-99.9,30.37,WNW,300,9.0,13.0,-999,-99.99,,,-99.99,,2013-01-10 21:44:00,
2013-01-10 16:53:00,42.0,-99.9,30.38,NW,314,6.0,13.0,-999,-99.99,,,-99.99,,2013-01-10 21:53:00,
2013-01-10 17:04:00,42.0,-99.9,30.38,NW,316,8.0,13.0,-999,-99.99,,,-99.99,,2013-01-10 22:04:00,
2013-01-10 17:13:00,42.0,-99.9,30.38,NW,314,6.0,14.0,-999,-99.99,,,-99.99,,2013-01-10 22:13:00,
2013-01-10 17:27:00,42.0,-99.9,30.39,NW,315,8.0,13.0,-999,-99.99,,,-99.99,,2013-01-10 22:27:00,
2013-01-10 17:34:00,42.0,-99.9,30.39,WNW,289,9.0,13.0,-999,-99.99,,,-99.99,,2013-01-10 22:34:00,
2013-01-10 17:44:00,42.0,-99.9,30.40,North,4,6.0,13.0,-999,-99.99,,,-99.99,,2013-01-10 22:44:00,
2013-01-10 18:03:00,40.0,-99.9,30.41,NNW,336,6.0,9.0,-999,-99.99,,,-99.99,,2013-01-10 23:03:00,
2013-01-10 18:13:00,40.0,-99.9,30.41,NW,320,6.0,9.0,-999,-99.99,,,-99.99,,2013-01-10 23:13:00,
2013-01-10 18:23:00,40.0,-99.9,30.42,NW,324,2.0,6.0,-999,-99.99,,,-99.99,,2013-01-10 23:23:00,
2013-01-10 18:33:00,40.0,-99.9,30.42,NW,313,5.0,7.0,-999,-99.99,,,-99.99,,2013-01-10 23:33:00,
2013-01-10 18:43:00,40.0,-99.9,30.43,NNW,346,4.0,9.0,-999,-99.99,,,-99.99,,2013-01-10 23:43:00,
2013-01-10 18:53:00,40.0,-99.9,30.43,NNW,341,4.0,8.0,-999,-99.99,,,-99.99,,2013-01-10 23:53:00,
2013-01-10 19:03:00,40.0,-99.9,30.43,NNW,339,5.0,8.0,-999,-99.99,,,-99.99,,2013-01-11 00:03:00,
2013-01-10 19:13:00,39.0,-99.9,30.44,NW,312,4.0,7.0,-999,-99.99,,,-99.99,,2013-01-11 00:13:00,
2013-01-10 19:23:00,39.0,-99.9,30.44,North,357,3.0,6.0,-999,-99.99,,,-99.99,,2013-01-11 00:23:00,
2013-01-10 19:33:00,39.0,-99.9,30.44,WNW,296,5.0,6.0,-999,-99.99,,,-99.99,,2013-01-11 00:33:00,
2013-01-10 19:43:00,39.0,-99.9,30.44,WNW,301,5.0,7.0,-999,-99.99,,,-99.99,,2013-01-11 00:43:00,
2013-01-10 19:53:00,39.0,-99.9,30.45,NNW,329,5.0,6.0,-999,-99.99,,,-99.99,,2013-01-11 00:53:00,
2013-01-10 20:03:00,39.0,-99.9,30.46,NW,320,4.0,10.0,-999,-99.99,,,-99.99,,2013-01-11 01:03:00,
2013-01-10 20:13:00,40.0,-99.9,30.45,NW,305,6.0,10.0,-999,-99.99,,,-99.99,,2013-01-11 01:13:00,
2013-01-10 20:24:00,40.0,-99.9,30.46,NW,322,3.0,10.0,-999,-99.99,,,-99.99,,2013-01-11 01:24:00,
2013-01-10 20:34:00,40.0,-99.9,30.47,NW,326,8.0,10.0,-999,-99.99,,,-99.99,,2013-01-11 01:34:00,
2013-01-10 20:44:00,40.0,-99.9,30.48,NW,321,8.0,10.0,-999,-99.99,,,-99.99,,2013-01-11 01:44:00,
2013-01-10 20:53:00,40.0,-99.9,30.48,NNW,330,7.0,11.0,-999,-99.99,,,-99.99,,2013-01-11 01:53:00,
2013-01-10 21:03:00,40.0,-99.9,30.48,NW,315,6.0,11.0,-999,-99.99,,,-99.99,,2013-01-11 02:03:00,
2013-01-10 21:13:00,39.0,-99.9,30.48,NNW,330,5.0,9.0,-999,-99.99,,,-99.99,,2013-01-11 02:13:00,
2013-01-10 21:24:00,39.0,-99.9,30.48,NW,326,6.0,10.0,-999,-99.99,,,-99.99,,2013-01-11 02:24:00,
2013-01-10 21:33:00,39.0,-99.9,30.48,NW,325,7.0,11.0,-999,-99.99,,,-99.99,,2013-01-11 02:33:00,
2013-01-10 21:44:00,39.0,-99.9,30.48,NW,323,6.0,10.0,-999,-99.99,,,-99.99,,2013-01-11 02:44:00,
2013-01-10 21:54:00,40.0,-99.9,30.48,NNW,329,10.0,13.0,-999,-99.99,,,-99.99,,2013-01-11 02:54:00,
2013-01-10 22:03:00,40.0,-99.9,30.48,NNW,327,11.0,13.0,-999,-99.99,,,-99.99,,2013-01-11 03:03:00,
2013-01-10 22:13:00,39.0,-99.9,30.48,NNW,329,9.0,14.0,-999,-99.99,,,-99.99,,2013-01-11 03:13:00,
2013-01-10 22:34:00,39.0,-99.9,30.49,NNW,327,8.0,15.0,-999,-99.99,,,-99.99,,2013-01-11 03:34:00,
2013-01-10 22:43:00,39.0,-99.9,30.49,NW,319,9.0,14.0,-999,-99.99,,,-99.99,,2013-01-11 03:43:00,
2013-01-10 22:53:00,39.0,-99.9,30.48,NNW,330,10.0,14.0,-999,-99.99,,,-99.99,,2013-01-11 03:53:00,
2013-01-10 23:03:00,39.0,-99.9,30.49,NW,322,11.0,13.0,-999,-99.99,,,-99.99,,2013-01-11 04:03:00,
2013-01-10 23:12:00,39.0,-99.9,30.48,NNW,330,11.0,15.0,-999,-99.99,,,-99.99,,2013-01-11 04:12:00,
2013-01-10 23:23:00,38.0,-99.9,30.48,NNW,333,12.0,16.0,-999,-99.99,,,-99.99,,2013-01-11 04:23:00,
2013-01-10 23:33:00,38.0,-99.9,30.48,NNW,331,11.0,15.0,-999,-99.99,,,-99.99,,2013-01-11 04:33:00,
2013-01-10 23:43:00,38.0,-99.9,30.48,NNW,329,11.0,16.0,-999,-99.99,,,-99.99,,2013-01-11 04:43:00,
2013-01-10 23:53:00,38.0,-99.9,30.49,NNW,330,10.0,15.0,-999,-99.99,,,-99.99,,2013-01-11 04:53:00,